TimeEST,TemperatureF,Dew PointF,Humidity,Sea Level PressureIn,VisibilityMPH,Wind Direction,Wind SpeedMPH,Gust SpeedMPH,PrecipitationIn,Events,Conditions,WindDirDegrees,DateUTC
12:53 AM,18.0,-0.0,45,30.06,10.0,East,3.5,-,N/A,,Mostly Cloudy,100,2005-01-22 05:53:00
1:53 AM,19.9,1.9,46,30.02,10.0,ESE,5.8,-,N/A,,Overcast,110,2005-01-22 06:53:00
2:53 AM,21.0,3.9,48,30.04,10.0,SE,5.8,-,N/A,,Overcast,130,2005-01-22 07:53:00
3:53 AM,21.9,7.0,53,29.96,10.0,ESE,10.4,-,N/A,,Overcast,110,2005-01-22 08:53:00
4:01 AM,21.2,10.4,63,29.87,5.0,ESE,12.7,18.4,0.00,Snow,Light Snow,110,2005-01-22 09:01:00
4:12 AM,19.4,12.2,74,29.88,2.5,SE,8.1,-,0.00,Snow,Light Snow,140,2005-01-22 09:12:00
4:33 AM,19.4,12.2,74,29.85,6.0,ESE,11.5,-,0.00,Snow,Light Snow,110,2005-01-22 09:33:00
4:53 AM,21.9,15.1,75,29.87,10.0,ESE,10.4,-,0.00,,Overcast,120,2005-01-22 09:53:00
5:53 AM,23.0,16.0,74,29.82,10.0,ESE,6.9,-,0.00,,Overcast,120,2005-01-22 10:53:00
6:31 AM,24.8,17.6,74,29.74,3.0,SE,12.7,20.7,0.00,Snow,Light Snow,140,2005-01-22 11:31:00
6:44 AM,24.8,19.4,80,29.72,2.5,SSE,12.7,-,0.00,Snow,Light Snow,150,2005-01-22 11:44:00
6:53 AM,25.0,19.9,81,29.77,3.0,SE,13.8,-,0.01,Snow,Light Snow,140,2005-01-22 11:53:00
7:26 AM,26.6,21.2,80,29.68,7.0,Variable,5.8,23.0,0.00,Rain-Snow,Light Freezing Rain,0,2005-01-22 12:26:00
7:42 AM,28.4,23.0,80,29.65,8.0,SE,12.7,18.4,0.01,Rain,Light Freezing Rain,130,2005-01-22 12:42:00
7:53 AM,28.0,23.0,81,29.70,9.0,SSE,15.0,-,0.02,Rain,Light Freezing Rain,150,2005-01-22 12:53:00
8:53 AM,30.9,26.1,82,29.61,7.0,SSE,13.8,25.3,0.04,Rain,Light Freezing Rain,150,2005-01-22 13:53:00
9:53 AM,34.0,30.0,85,29.56,5.0,South,19.6,-,0.05,Rain,Light Freezing Rain,170,2005-01-22 14:53:00
10:02 AM,33.8,30.2,87,29.52,5.0,South,11.5,20.7,0.01,Rain,Rain,180,2005-01-22 15:02:00
10:13 AM,35.6,30.2,81,29.52,4.0,Variable,5.8,18.4,0.03,Rain,Rain,0,2005-01-22 15:13:00
10:23 AM,35.6,32.0,87,29.53,5.0,South,8.1,-,0.04,Rain,Light Rain,190,2005-01-22 15:23:00
10:53 AM,36.0,33.1,89,29.59,5.0,South,9.2,-,0.08,Rain,Light Rain,190,2005-01-22 15:53:00
11:53 AM,36.0,34.0,93,29.56,3.0,SSW,6.9,-,0.01,Rain,Light Rain,200,2005-01-22 16:53:00
12:02 PM,35.6,33.8,93,29.51,3.0,South,8.1,-,0.00,Rain,Light Rain,190,2005-01-22 17:02:00
12:40 PM,35.6,33.8,93,29.49,2.5,SSW,8.1,16.1,0.01,Rain,Light Rain,210,2005-01-22 17:40:00
12:46 PM,35.6,33.8,93,29.49,3.0,SSW,8.1,-,0.01,Rain,Light Rain,200,2005-01-22 17:46:00
12:53 PM,36.0,34.0,93,29.54,4.0,SSW,6.9,-,0.02,Rain,Light Rain,210,2005-01-22 17:53:00
1:53 PM,36.0,34.0,93,29.55,4.0,West,5.8,-,0.03,Rain,Light Rain,260,2005-01-22 18:53:00
2:18 PM,35.6,32.0,87,29.52,10.0,West,8.1,17.3,0.01,Rain,Light Rain,260,2005-01-22 19:18:00
2:53 PM,34.0,28.9,82,29.58,10.0,WSW,11.5,19.6,0.01,Rain,Light Rain,250,2005-01-22 19:53:00
3:38 PM,32.0,26.6,80,29.57,10.0,WSW,10.4,21.9,0.00,Rain,Light Rain,240,2005-01-22 20:38:00
3:53 PM,32.0,26.1,79,29.62,10.0,SW,9.2,-,0.00,Rain,Light Rain,230,2005-01-22 20:53:00
4:53 PM,30.9,24.1,76,29.64,5.0,WSW,11.5,-,0.00,Snow,Light Snow,250,2005-01-22 21:53:00
5:15 PM,30.2,24.8,80,29.61,2.0,WSW,12.7,-,0.00,Snow,Light Snow,250,2005-01-22 22:15:00
5:39 PM,28.4,24.8,86,29.61,2.0,WSW,12.7,-,0.00,Snow,Light Snow,250,2005-01-22 22:39:00
5:53 PM,28.9,25.0,85,29.66,1.5,WSW,12.7,-,0.00,Snow,Light Snow,250,2005-01-22 22:53:00
6:10 PM,28.4,24.8,86,29.62,3.0,West,11.5,16.1,0.00,Snow,Light Snow,260,2005-01-22 23:10:00
6:53 PM,27.0,19.9,75,29.68,6.0,West,10.4,17.3,0.00,Snow,Light Snow,270,2005-01-22 23:53:00
7:01 PM,26.6,19.4,74,29.65,2.5,West,16.1,20.7,0.00,Snow,Light Snow,280,2005-01-23 00:01:00
7:17 PM,24.8,19.4,80,29.66,5.0,WNW,8.1,18.4,0.00,Snow,Light Snow,290,2005-01-23 00:17:00
7:39 PM,24.8,15.8,69,29.67,9.0,WNW,13.8,20.7,0.00,Snow,Light Snow,300,2005-01-23 00:39:00
7:53 PM,21.9,14.0,72,29.73,7.0,WNW,12.7,25.3,0.00,Snow,Light Snow,300,2005-01-23 00:53:00
8:53 PM,19.0,12.0,74,29.78,6.0,WNW,16.1,24.2,0.00,Snow,Light Snow,300,2005-01-23 01:53:00
9:21 PM,17.6,12.2,79,29.74,3.0,Variable,5.8,-,0.00,Snow,Light Snow,0,2005-01-23 02:21:00
9:53 PM,16.0,10.9,81,29.80,1.2,WNW,8.1,-,0.00,Snow,Light Snow,300,2005-01-23 02:53:00
9:59 PM,15.8,12.2,86,29.76,0.8,WNW,9.2,18.4,0.00,Snow,Light Snow,300,2005-01-23 02:59:00
10:21 PM,14.0,8.6,79,29.79,1.5,WNW,8.1,19.6,0.00,Snow,Light Snow,300,2005-01-23 03:21:00
10:29 PM,14.0,8.6,79,29.79,2.0,WNW,11.5,17.3,0.00,Snow,Light Snow,300,2005-01-23 03:29:00
10:35 PM,14.0,8.6,79,29.79,1.5,NW,11.5,20.7,0.00,Snow,Light Snow,310,2005-01-23 03:35:00
10:41 PM,14.0,8.6,79,29.80,2.0,NW,8.1,-,0.00,Snow,Light Snow,310,2005-01-23 03:41:00
10:53 PM,12.9,8.1,81,29.85,1.2,NW,12.7,19.6,0.00,Snow,Light Snow,310,2005-01-23 03:53:00
11:03 PM,12.2,6.8,79,29.81,3.0,WNW,9.2,19.6,0.00,Snow,Light Snow,300,2005-01-23 04:03:00
11:16 PM,12.2,6.8,79,29.81,2.5,WNW,9.2,-,0.00,Snow,Light Snow,300,2005-01-23 04:16:00
11:30 PM,12.2,6.8,79,29.82,2.0,WNW,9.2,-,0.00,Snow,Light Snow,300,2005-01-23 04:30:00
11:45 PM,12.2,3.2,67,29.82,3.0,NW,12.7,20.7,0.00,Snow,Light Snow,320,2005-01-23 04:45:00
11:53 PM,12.0,3.9,70,29.88,2.5,NW,11.5,20.7,0.00,Snow,Light Snow,320,2005-01-23 04:53:00